Location: *
(51.1248°S, 108.4023°W)
Time: 20:27:14
(UTC+00:00)

Tiangong - Visible Passes

Search period start: 26 September 2021 00:00
Search period end: 06 October 2021 00:00
Orbit: 382 x 385 km, 41.5° (Epoch: 26 September)

Date Brightness Start Highest point End Pass type
(mag) Time Alt. Az. Time Alt. Az. Time Alt. Az.
26 Sep 3.4 01:47:31 10° NNW 01:49:14 14° N 01:50:56 10° NE visible
26 Sep 3.7 03:23:30 10° NW 03:24:12 12° NNW 03:24:12 12° NNW visible
27 Sep 3.3 02:23:40 10° NW 02:25:37 15° N 02:27:11 12° NNE visible
28 Sep 3.6 03:00:37 10° NW 03:01:59 12° NNW 03:02:19 12° N visible
29 Sep 3.5 02:00:31 10° NW 02:02:19 14° N 02:04:08 10° NNE visible
